Regional Weather Roundup
Issued by NWS

Home | Current Version | Previous Version | Text Only | Print | Product List | Glossary On
Versions: 1 2 3 4 5 6 7 8 9 10 11 12 13 14 15 16 17 18 19 20 21 22 23 24 25 26 27 28 29 30 31 32 33 34 35 36 37 38 39 40 41 42 43 44 45 46 47 48 49 50
236
ASPQ40 PGUM 260010
RWRPQ
WEATHER ROUNDUP FOR THE MARIANAS AND MICRONESIA
NATIONAL WEATHER SERVICE TIYAN GU
1000 AM CHST SAT MAY 26 2018

GUZ001>004-260100-
MARIANA ISLANDS-

CITY           SKY/WX    TMP DP  RH WIND       PRES   REMARKS
GUAM AIRPORT   PTSUNNY   88  81  79 E13       29.90S HX 105
ANDERSEN AFB   MOSUNNY   88  79  74 SE15G21   29.91S HX 102
ROTA AIRPORT   MOSUNNY   82  77  83 E14       29.91R HX  91
TINIAN AP      MOSUNNY   84  75  74 E10       29.89S HX  92
SAIPAN AP      MOSUNNY   88  79  74 E13       29.90S HX 102

$$

PMZ161-260100-
REPUBLIC OF PALAU-

CITY           SKY/WX    TMP DP  RH WIND       PRES   REMARKS
KOROR AP       PTSUNNY   86  79  79 NE7       29.80F HX  99
KOROR WSO      NOT AVBL

$$

PMZ171>174-260100-
FEDERATED STATES OF MICRONESIA-

CITY           SKY/WX    TMP DP  RH WIND       PRES   REMARKS
YAP AIRPORT    PTSUNNY   88  79  74 E9        29.83R HX 102
CHUUK AP       NOT AVBL
POHNPEI AP     CLOUDY    88  79  74 E9        29.83F HX 102
POHNPEI WSO    PTSUNNY   88  79  74 E6        29.87F HX 102
KOSRAE AP      CLOUDY    88  77  70 NE16      29.80F HX 100

$$

PMZ181-260100-
REPUBLIC OF THE MARSHALL ISLANDS-

CITY           SKY/WX    TMP DP  RH WIND       PRES   REMARKS
KWAJALEIN AP   MOSUNNY   86  79  79 E18       29.85F HX  99
MAJURO AP      MOSUNNY   86  77  74 MISG      29.84F HX  97
MAJURO WSO     PTSUNNY   86  77  74 E10       29.83F HX  97

$$





USA.gov is the U.S. government's official web portal to all federal, state and local government web resources and services.